TimeEDT,TemperatureF,Dew PointF,Humidity,Sea Level PressureIn,VisibilityMPH,Wind Direction,Wind SpeedMPH,Gust SpeedMPH,PrecipitationIn,Events,Conditions,WindDirDegrees,DateUTC
12:54 AM,45.0,45.0,100,30.08,10.0,NNW,10.4,-,N/A,,Overcast,340,2012-10-27 04:54:00
1:54 AM,45.0,44.1,97,30.06,4.0,North,6.9,-,0.01,Rain,Light Rain,360,2012-10-27 05:54:00
2:54 AM,45.0,44.1,97,30.05,5.0,North,9.2,-,0.04,Rain,Rain,350,2012-10-27 06:54:00
3:54 AM,44.1,44.1,100,30.05,7.0,North,8.1,-,0.07,Rain,Light Rain,350,2012-10-27 07:54:00
4:54 AM,44.1,44.1,100,30.03,10.0,North,8.1,-,0.04,Rain,Light Rain,350,2012-10-27 08:54:00
5:54 AM,44.1,44.1,100,30.04,10.0,NNW,10.4,-,0.02,,Overcast,330,2012-10-27 09:54:00
6:54 AM,45.0,44.1,97,30.06,2.0,North,10.4,-,0.02,Rain,Rain,350,2012-10-27 10:54:00
7:19 AM,44.6,44.6,100,30.06,3.0,NNW,12.7,-,0.01,Rain,Light Rain,340,2012-10-27 11:19:00
7:49 AM,44.6,42.8,93,30.07,5.0,NNW,12.7,-,0.02,Rain,Light Rain,330,2012-10-27 11:49:00
7:54 AM,44.1,43.0,96,30.07,5.0,NNW,15.0,19.6,0.02,Rain,Light Rain,340,2012-10-27 11:54:00
8:54 AM,43.0,42.1,97,30.10,2.5,NNW,11.5,-,0.00,,Overcast,340,2012-10-27 12:54:00
9:54 AM,42.8,42.8,100,30.10,2.5,North,12.7,20.7,N/A,,Overcast,360,2012-10-27 13:54:00
10:51 AM,44.6,42.8,93,30.11,10.0,North,17.3,24.2,N/A,,Overcast,360,2012-10-27 14:51:00
10:54 AM,44.1,42.1,93,30.12,10.0,North,13.8,24.2,N/A,,Overcast,10,2012-10-27 14:54:00
11:54 AM,45.0,42.1,90,30.11,10.0,North,11.5,20.7,N/A,,Overcast,360,2012-10-27 15:54:00
12:54 PM,46.0,43.0,89,30.09,10.0,North,13.8,20.7,N/A,,Overcast,10,2012-10-27 16:54:00
1:00 PM,46.4,42.8,87,30.08,10.0,North,16.1,-,N/A,,Overcast,10,2012-10-27 17:00:00
1:54 PM,46.0,43.0,89,30.07,10.0,NNE,16.1,21.9,N/A,,Overcast,20,2012-10-27 17:54:00
2:54 PM,46.9,43.0,86,30.06,10.0,North,12.7,-,N/A,,Overcast,10,2012-10-27 18:54:00
3:54 PM,48.0,43.0,83,30.05,10.0,NNE,13.8,-,N/A,,Overcast,20,2012-10-27 19:54:00
4:54 PM,48.0,43.0,83,30.06,10.0,North,10.4,-,N/A,,Overcast,360,2012-10-27 20:54:00
5:54 PM,48.0,43.0,83,30.07,10.0,North,11.5,-,N/A,,Overcast,10,2012-10-27 21:54:00
6:54 PM,48.0,43.0,83,30.08,10.0,North,6.9,-,N/A,,Overcast,10,2012-10-27 22:54:00
7:13 PM,48.2,42.8,82,30.07,10.0,North,6.9,-,N/A,,Overcast,10,2012-10-27 23:13:00
7:54 PM,48.0,43.0,83,30.08,10.0,North,5.8,-,N/A,,Overcast,360,2012-10-27 23:54:00
8:11 PM,48.2,44.6,87,30.08,10.0,NNE,4.6,-,N/A,,Overcast,20,2012-10-28 00:11:00
8:54 PM,48.0,44.1,86,30.08,10.0,NNE,6.9,-,N/A,,Overcast,20,2012-10-28 00:54:00
9:47 PM,46.4,42.8,87,30.08,10.0,NNE,12.7,-,N/A,,Overcast,20,2012-10-28 01:47:00
9:54 PM,46.9,39.9,77,30.09,10.0,NNE,16.1,21.9,N/A,,Overcast,20,2012-10-28 01:54:00
10:54 PM,46.9,37.9,71,30.09,10.0,NNE,12.7,-,N/A,,Overcast,20,2012-10-28 02:54:00
11:54 PM,46.9,37.0,68,30.07,10.0,NNE,11.5,19.6,N/A,,Overcast,20,2012-10-28 03:54:00